Weather in Sabratah

Libya     32°46′14″N   12°32′22″E
В апреле 2022 года жителям России запретили посещать сайт meteo.paraplan.net по решению Генеральной прокуратуры. Аудитория сайта уменьшилась в 10 раз. Владельцы сайта не видят смысла в поддержке погодного сервера в таких условиях. Сайт будет закрыт в октябре.
temp.,
°C
wind,
m/s
gust,
m/s
humid.,
%
clouds,
%
prec.,
mm/h
press.,
hPa
HPBL,
m
6 october, thu
thu623:00+23e710520 0.0 1024544
02:00+22ese59585 0.0 1024453
05:00+21ese47621 0.0 1024338
08:00+21se46625 0.0 1025258
11:00+25e56480 0.0 10251323
14:00+27ne76430 0.0 10241630
17:00+25ne88480 0.0 10231042
20:00+24ene79530 0.0 1024635
7 october, fri
fri723:00+23e68570 0.0 1025558
02:00+22ese46605 0.0 1024426
05:00+21se34640 0.0 1023231
08:00+21se33630 0.0 1023242
11:00+24ene23485 0.0 10241304
14:00+26nne53435 0.0 10221441
17:00+25ne54442 0.0 10211046
20:00+24ne56500 0.0 1022437
8 october, sat
sat823:00+23e45655 0.0 1022454
02:00+22ese34710 0.0 1021263
05:00+21se34690 0.0 1020156
08:00+21se23670 0.0 1021150
11:00+24ese11510 0.0 1021971
14:00+27nne43400 0.0 10201540
17:00+25ne54480 0.0 1019658
20:00+24ene45570 0.0 1019317
9 october, sun
sun923:00+23ese45610 0.0 1020261
02:00+22ese34630 0.0 1020143
05:00+21ese23640 0.0 101995
08:00+21sse22590 0.0 101981
11:00+26ssw11373 0.0 1020643
14:00+29ne32310 0.0 10191052
17:00+27ne543767 0.0 1018451
20:00+26ene46454 0.0 1018199
10 october, mon
mon1023:00+25ese4651100 0.0 1019168
02:00+24ese3447100 0.0 101888
05:00+24s4536100 0.0 101777
08:00+24ssw3436100 0.0 101893
11:00+30s452469 0.0 1018533
14:00+33wsw241999 0.0 10161851
17:00+30nne653161 0.0 1016402
20:00+27ene68473 0.0 1016230